This demonstration page uses our WeatherBlox Daily Observations layout. Learn more.

Left ArrowRight Arrow

Hourly Observations for December 9, 2022

Temp ( °F °C ) Dew Point ( °F °C ) Humidity (%) Winds ( mph kmh ) Pressure ( in mb ) Visibility ( mi km ) Precip ( " mm )
12:36 am 00:36 Mostly Clear with Mist and Fog 37 2.8 36 2.2 96 96 Calm 30.17 1022 1 2 0.00 0.00
12:45 am 00:45 Mostly Clear with Mist and Fog 38 3.3 37 2.8 97 97 Calm 30.17 1022 3 4 0.00 0.00
12:53 am 00:53 Mostly Clear with Mist and Fog 38 3.3 36 2.2 92 92 N 3 6 30.16 1021 4 6 0.00 0.00
1:53 am 01:53 Clear with Mist and Fog 36 2.2 34 1.1 92 92 WNW 3 6 30.16 1022 3 5 0.00 0.00
2:22 am 02:22 Mostly Clear with Mist and Fog 36 2.2 34 1.1 92 92 Calm 30.19 1023 2 3 0.00 0.00
2:27 am 02:27 Mostly Clear with Mist and Fog 35 1.7 34 1.1 96 96 Calm 30.20 1023 1 2 0.00 0.00
2:36 am 02:36 Mostly Clear with Fog 35 1.7 34 1.1 96 96 W 5 7 30.20 1023 1 1 0.00 0.00
2:44 am 02:44 Mostly Clear with Fog 35 1.7 33 0.6 92 92 W 3 6 30.20 1023 0 0 0.00 0.00
2:53 am 02:53 Mostly Clear with Mist and Fog 34 1.1 33 0.6 96 96 NW 7 11 30.18 1022 1 1 0.00 0.00
2:57 am 02:57 Mostly Cloudy with Mist and Fog 35 1.7 34 1.1 96 96 NW 6 9 30.20 1023 2 2 0.00 0.00
3:00 am 03:00 Partly Cloudy with Mist and Fog 35 1.7 34 1.1 96 96 NW 5 7 30.20 1023 2 3 0.00 0.00
3:10 am 03:10 Mostly Clear with Mist and Fog 35 1.7 35 1.7 100 100 Calm 30.20 1023 3 5 0.00 0.00
3:18 am 03:18 Clear with Mist and Fog 35 1.7 34 1.1 96 96 NNW 3 6 30.20 1023 3 4 0.00 0.00
3:34 am 03:34 Mostly Clear with Mist and Fog 34 1.1 33 0.6 96 96 Calm 30.20 1023 2 2 0.00 0.00
3:36 am 03:36 Mostly Clear with Mist and Fog 34 1.1 33 0.6 96 96 Calm 30.20 1023 1 2 0.00 0.00
3:44 am 03:44 Mostly Clear with Fog 34 1.1 33 0.6 96 96 Calm 30.21 1023 1 1 0.00 0.00
3:53 am 03:53 Mostly Clear with Fog 34 1.1 33 0.6 96 96 Calm 30.18 1022 1 1 0.00 0.00
4:30 am 04:30 Mostly Clear with Mist and Fog 33 0.6 31 -0.6 92 92 Calm 30.21 1023 1 1 0.00 0.00
4:42 am 04:42 Mostly Cloudy with Mist and Fog 33 0.6 32 0 96 96 Calm 30.23 1024 1 2 0.00 0.00
4:47 am 04:47 Mostly Cloudy with Mist and Fog 34 1 30 -1 86 86 Calm 30.24 1024 2 3 0.00 0.00
4:53 am 04:53 Mostly Cloudy with Mist and Fog 33 0.6 31 -0.6 92 92 WNW 6 9 30.23 1024 3 4 0.00 0.00
4:59 am 04:59 Partly Cloudy with Mist and Fog 34 1.1 32 0 92 92 NNW 5 7 30.25 1024 3 5 0.00 0.00
5:15 am 05:15 Mostly Clear with Mist and Fog 33 0.6 33 0.6 100 100 Calm 30.21 1023 2 3 0.00 0.00
5:24 am 05:24 Mostly Clear with Mist and Fog 33 0.6 32 0 96 96 Calm 30.20 1023 1 2 0.00 0.00
5:27 am 05:27 Mostly Clear with Mist and Fog 33 0.6 31 -0.6 92 92 WNW 5 7 30.20 1023 1 2 0.00 0.00
5:32 am 05:32 Mostly Clear with Mist and Fog 34 1.1 31 -0.6 88 88 NW 6 9 30.19 1022 2 3 0.00 0.00
5:40 am 05:40 Mostly Clear 35 1.7 33 0.6 92 92 NW 5 7 30.18 1022 9 14 0.00 0.00
5:53 am 05:53 Clear 35 1.7 33 0.6 92 92 NNW 5 7 30.16 1021 8 13 0.00 0.00
6:53 am 06:53 Cloudy 35 1.7 34 1.1 96 96 NW 5 7 30.17 1022 10 16 0.00 0.00
7:53 am 07:53 Cloudy 37 2.8 36 2.2 96 96 Calm 30.18 1022 10 16 0.00 0.00
8:53 am 08:53 Cloudy 39 3.9 36 2.2 89 89 Calm 30.19 1022 10 16 0.00 0.00
9:53 am 09:53 Cloudy 40 4.4 37 2.8 89 89 Calm 30.19 1023 10 16 0.00 0.00
10:53 am 10:53 Cloudy 41 5 38 3.3 89 89 Calm 30.19 1023 10 16 0.00 0.00
11:53 am 11:53 Cloudy 43 6.1 38 3.3 82 82 Calm 30.17 1022 10 16 0.00 0.00
12:15 pm 12:15 Cloudy 43 6.1 38 3.3 82 82 Calm 30.17 1022 10 16 0.00 0.00
12:53 pm 12:53 Cloudy with Light Rain 44 6.7 39 3.9 82 82 Calm 30.13 1020 10 16 0.01 0.13
1:08 pm 13:08 Cloudy 44 6.7 39 3.9 82 82 W 3 6 30.14 1020 10 16 0.01 0.13
1:53 pm 13:53 Cloudy 45 7.2 41 5 86 86 N 3 6 30.09 1019 10 16 0.01 0.13
2:09 pm 14:09 Cloudy 45 7.2 41 5 86 86 Calm 30.09 1019 10 16 0.00 0.00
2:22 pm 14:22 Cloudy 45 7.2 40 4.4 82 82 Calm 30.09 1019 10 16 0.00 0.00
2:38 pm 14:38 Cloudy 45 7.2 40 4.4 82 82 N 3 6 30.08 1019 10 16 0.00 0.00
2:53 pm 14:53 Cloudy 45 7.2 41 5 86 86 WNW 3 6 30.07 1018 10 16 0.00 0.00
3:00 pm 15:00 Cloudy 45 7.2 40 4.4 82 82 Calm 30.08 1019 10 16 0.00 0.00
3:53 pm 15:53 Cloudy 45 7.2 41 5 86 86 Calm 30.07 1018 10 16 0.00 0.00
4:05 pm 16:05 Cloudy 45 7.2 40 4.4 82 82 Calm 30.08 1019 10 16 0.00 0.00
4:53 pm 16:53 Cloudy 45 7.2 41 5 86 86 Calm 30.05 1018 10 16 0.01 0.13
5:20 pm 17:20 Cloudy 44 6.7 41 5 89 89 Calm 30.06 1018 10 16 0.00 0.00
5:53 pm 17:53 Cloudy with Light Rain 44 6.7 41 5 89 89 Calm 30.03 1017 10 16 0.01 0.13
6:53 pm 18:53 Cloudy with Light Rain 46 7.8 40 4.4 79 79 S 10 17 30.02 1017 7 11 0.04 1.02
7:53 pm 19:53 Cloudy 46 7.8 40 4.4 79 79 SSW 3 6 30.00 1016 10 16 0.02 0.51
8:53 pm 20:53 Cloudy 44 6.7 41 5 89 89 Calm 30.00 1016 10 16 0.00 0.00
9:53 pm 21:53 Cloudy 44 6.7 42 5.6 93 93 Calm 29.96 1015 10 16 0.00 0.00
10:19 pm 22:19 Cloudy with Light Rain 44 6.7 42 5.6 93 93 Calm 29.96 1015 9 14 0.01 0.13
10:26 pm 22:26 Cloudy 45 7.2 42 5.6 90 90 Calm 29.95 1014 10 16 0.01 0.13
10:53 pm 22:53 Cloudy 44 6.7 41 5 89 89 NNE 3 6 29.93 1014 8 13 0.01 0.13
11:53 pm 23:53 Cloudy 44 6.7 41 5 89 89 N 7 11 29.89 1012 9 14 0.00 0.00

Powered by AerisWeather